Location: Fredericksburg
(30.2750°N, 98.8720°W)
Time: 10:31:48
(UTC-05:00)

Amateur Radio Satellites - All Passes

Search period start: 31 March 2015 10:01
Search period end: 01 April 2015 10:01
Location: Fredericksburg, 30.2750°N, 98.8720°W

Satellite Date Start Highest point End Downlink Frequencies (MHz)
Time Altitude Azimuth
COMPASS 1 31 Mar 10:02:29 10:06:14 31° 97° (E) 10:10:02 437.405
GOMX 1 31 Mar 10:08:10 10:12:33 73° 101° (E) 10:17:13 467.674
Oscar 11 31 Mar 10:15:08 10:17:48 16° 93° (E) 10:20:39 145.826/435.025
FUNcube-1 31 Mar 10:30:34 10:32:12 12° 92° (E) 10:34:10 145.935
PHONESAT 2.4 31 Mar 10:31:14 10:34:13 25° 17° (NNE) 10:37:13 2401.200-2431.200
AIST 2 31 Mar 10:33:07 10:36:43 28° 112° (ESE) 10:40:26 435.215
DELFI C3 31 Mar 10:36:24 10:39:30 21° 95° (E) 10:42:42 145.870
CANX-2 31 Mar 10:38:43 10:42:54 49° 284° (WNW) 10:47:03 2200.000
UWE-3 31 Mar 10:38:49 10:42:09 21° 95° (E) 10:45:41 435.000/436.395/437.385
ANTELSAT 31 Mar 10:41:12 10:44:04 18° 71° (ENE) 10:47:06 437.575/2403.000
ZACube-1 31 Mar 10:43:03 10:46:04 18° 94° (E) 10:49:17 437.345
BEESAT 2 31 Mar 10:46:43 10:50:43 53° 299° (WNW) 10:54:46 435.950
CUBEBUG 2 31 Mar 10:47:35 10:51:39 33° 97° (E) 10:55:52 437.445
CINEMA 3 31 Mar 10:49:00 10:53:31 71° 100° (E) 10:58:15 145.822/145.860
CUTE 1.7 + AOD 2 31 Mar 10:52:30 10:56:30 37° 285° (WNW) 11:00:26 437.475
POPSAT HIP 1 31 Mar 10:58:45 11:00:51 14° 71° (ENE) 11:03:09 437.405
HO-68 31 Mar 11:01:25 11:08:24 53° 289° (WNW) 11:15:18 435.675
NANOSAT C BR1 31 Mar 11:07:42 11:10:32 18° 72° (ENE) 11:13:29 145.865
AAUSAT CUBESAT 2 31 Mar 11:08:58 11:12:58 40° 285° (WNW) 11:16:54 437.432
VERMONT LUNAR 31 Mar 11:11:10 11:14:31 76° 211° (SSW) 11:17:52 437.305
BRITE-PL 31 Mar 11:12:27 11:14:22 12° 288° (WNW) 11:16:04 437.365/2234.400
POLYITAN 1 31 Mar 11:13:28 11:16:41 22° 72° (ENE) 11:19:58 437.675
HUMSAT D 31 Mar 11:17:17 11:20:31 21° 95° (E) 11:23:52 437.325/437.525
SEEDS 31 Mar 11:19:12 11:22:33 22° 287° (WNW) 11:25:47 437.485
UKube-1 31 Mar 11:21:19 11:25:14 34° 98° (E) 11:29:10 .
BEESAT 3 31 Mar 11:22:41 11:25:35 18° 307° (NW) 11:28:24 437.485
DOVE 4 31 Mar 11:25:49 11:29:15 21° 287° (WNW) 11:32:41 437.250
DX 1 31 Mar 11:34:06 11:38:20 53° 100° (E) 11:42:34 434.975-435.025
UNISAT 6 31 Mar 11:35:38 11:39:53 89° 289° (WNW) 11:44:12 437.425
COMPASS 1 31 Mar 11:39:03 11:41:43 16° 289° (WNW) 11:44:12 437.405
50 SAT 31 Mar 11:39:15 11:42:30 24° 96° (E) 11:45:51 437.505
TIGRISAT 31 Mar 11:44:55 11:49:08 70° 259° (WSW) 11:53:24 435.000
QB50P1 31 Mar 11:48:23 11:52:32 61° 76° (ENE) 11:56:41 145.935-145.965
DUCHIFAT 1 31 Mar 11:48:59 11:53:08 60° 76° (ENE) 11:57:17 145.980
Oscar 11 31 Mar 11:50:11 11:54:04 31° 286° (WNW) 11:57:52 145.826/435.025
QB50P2 31 Mar 12:03:54 12:08:08 81° 258° (WSW) 12:12:21 145.880/145.840
FUNcube-1 31 Mar 12:04:33 12:08:47 44° 284° (WNW) 12:13:03 145.935
JUGNU 31 Mar 12:05:00 12:07:35 13° 162° (SSE) 12:10:19 437.505
PHONESAT 2.4 31 Mar 12:09:15 12:12:46 67° 212° (SSW) 12:16:17 2401.200-2431.200
DELFI C3 31 Mar 12:11:28 12:14:36 21° 288° (WNW) 12:17:36 145.870
AIST 2 31 Mar 12:12:08 12:15:21 20° 306° (NW) 12:18:28 435.215
UWE-3 31 Mar 12:14:52 12:18:39 27° 287° (WNW) 12:22:27 435.000/436.395/437.385
CUBEBUG 1 31 Mar 12:16:50 12:20:31 28° 97° (E) 12:24:14 437.445
ANTELSAT 31 Mar 12:17:05 12:20:43 26° 264° (W) 12:24:19 437.575/2403.000
ZACube-1 31 Mar 12:18:35 12:22:28 30° 286° (WNW) 12:26:21 437.345
BUGSAT 1 31 Mar 12:19:57 12:24:08 75° 258° (WSW) 12:28:15 437.445
VELOX 1 31 Mar 12:22:34 12:26:58 83° 102° (ESE) 12:31:22 145.980
CUBEBUG 2 31 Mar 12:25:07 12:28:09 17° 288° (WNW) 12:31:04 437.445
AISAT 31 Mar 12:28:12 12:32:36 81° 283° (WNW) 12:37:00 437.250
POPSAT HIP 1 31 Mar 12:32:37 12:36:29 35° 262° (W) 12:40:20 437.405
NANOSAT C BR1 31 Mar 12:42:38 12:46:14 26° 263° (W) 12:49:45 145.865
POLYITAN 1 31 Mar 12:49:13 12:52:32 22° 265° (W) 12:55:44 437.675
HUMSAT D 31 Mar 12:52:46 12:56:13 23° 287° (WNW) 12:59:35 437.325/437.525
UKube-1 31 Mar 12:58:33 13:01:08 15° 290° (WNW) 13:03:33 .
ESTCUBE 1 31 Mar 13:05:02 13:09:30 63° 284° (WNW) 13:13:55 437.505/2401.250
Oscar 19 31 Mar 13:13:28 13:16:02 15° 68° (ENE) 13:18:53 437.125/150
50 SAT 31 Mar 13:14:23 13:17:17 19° 288° (WNW) 13:20:03 437.505
TISAT 1 31 Mar 13:34:34 13:38:36 46° 100° (E) 13:42:39 437.305
JUGNU 31 Mar 13:51:22 13:56:06 25° 170° (S) 14:00:53 437.505
SPROUT 31 Mar 13:52:55 13:57:12 81° 283° (WNW) 14:01:28 437.525
CUBEBUG 1 31 Mar 13:53:42 13:56:43 18° 289° (WNW) 13:59:36 437.445
ITAMSAT 1 31 Mar 14:22:25 14:26:21 23° 70° (ENE) 14:30:27 435.822/435.867
YUBILEINY 31 Mar 14:24:57 14:33:41 75° 94° (E) 14:42:30 435.215
PCSat 31 Mar 14:34:32 14:39:45 53° 111° (ESE) 14:45:02 145.827
ITUPSAT 1 31 Mar 14:36:08 14:40:20 31° 97° (E) 14:44:34 437.325
O/OREOS (USA 219) 31 Mar 14:47:56 14:52:27 70° 71° (ENE) 14:56:54 437.305
Oscar 19 31 Mar 14:50:04 14:55:02 51° 260° (W) 15:00:00 437.125/150
SRMSAT 31 Mar 14:55:09 14:59:31 21° 167° (SSE) 15:03:56 437.500
TISAT 1 31 Mar 15:12:59 15:14:03 11° 290° (WNW) 15:14:50 437.305
SWISSCUBE 31 Mar 15:22:32 15:27:17 67° 284° (WNW) 15:32:00 437.505
Gurwin Techsat 1B 31 Mar 15:23:11 15:28:29 78° 77° (ENE) 15:33:49 435.225
BEESAT 31 Mar 15:25:04 15:29:50 69° 284° (WNW) 15:34:33 436.000
JUGNU 31 Mar 15:39:31 15:44:41 30° 180° (S) 15:49:52 437.505
JAS-2 31 Mar 15:50:45 15:55:24 20° 65° (ENE) 16:00:42 435.910
ITAMSAT 1 31 Mar 16:01:00 16:05:42 33° 263° (W) 16:10:20 435.822/435.867
HORYU 2 31 Mar 16:02:37 16:06:42 39° 74° (ENE) 16:10:51 437.375
AIST 1 31 Mar 16:04:52 16:09:08 65° 83° (E) 16:13:21
ITUPSAT 1 31 Mar 16:14:29 16:18:03 21° 290° (WNW) 16:21:28 437.325
PCSat 31 Mar 16:19:58 16:23:33 17° 307° (NW) 16:26:55 145.827
YUBILEINY 31 Mar 16:25:41 16:31:32 18° 292° (WNW) 16:36:48 435.215
AO-7 31 Mar 16:32:13 16:40:20 61° 70° (ENE) 16:48:28 29.400- 29.500
KKS-1 31 Mar 16:32:48 16:37:13 68° 284° (WNW) 16:41:38 437.445
SRMSAT 31 Mar 16:43:07 16:48:14 30° 177° (S) 16:53:20 437.500
STARS 31 Mar 16:59:19 17:03:37 52° 284° (WNW) 17:07:54 437.465
JUGNU 31 Mar 17:28:29 17:33:15 25° 190° (S) 17:38:00 437.505
RS-15 31 Mar 17:30:35 17:35:40 15° 104° (ESE) 17:41:46 29.354- 29.394
JAS-2 31 Mar 17:33:05 17:39:45 65° 260° (W) 17:47:13 435.910
HORYU 2 31 Mar 17:41:16 17:43:34 13° 267° (W) 17:45:37 437.375
AUBIESAT-1 31 Mar 18:16:00 18:19:23 20° 97° (E) 18:22:49 437.475
MOZHAYETS 4 31 Mar 18:24:53 18:29:31 76° 283° (WNW) 18:34:07
AO-7 31 Mar 18:27:14 18:33:38 23° 265° (W) 18:39:37 29.400- 29.500
SRMSAT 31 Mar 18:31:59 18:36:58 27° 187° (S) 18:41:55 437.500
CUTE-I 31 Mar 18:39:33 18:44:26 38° 73° (ENE) 18:49:22 437.470
Cubesat XI-IV 31 Mar 18:40:26 18:45:21 39° 73° (ENE) 18:50:21 437.490
M-CUBED/EXP-1 PRIME 31 Mar 18:41:38 18:46:15 46° 103° (ESE) 18:50:41 437.505
GONETS M04 31 Mar 18:46:35 18:51:50 19° 84° (E) 18:57:39
SO-50 31 Mar 19:03:44 19:08:17 76° 298° (WNW) 19:13:01 436.795
BEESAT 2 31 Mar 19:12:39 19:15:13 16° 53° (NE) 19:17:54 435.950
JUGNU 31 Mar 19:19:00 19:21:46 13° 198° (SSW) 19:24:25 437.505
RS-15 31 Mar 19:36:00 19:46:56 89° 116° (ESE) 19:57:59 29.354- 29.394
BEESAT 3 31 Mar 19:45:42 19:49:38 46° 60° (ENE) 19:53:32 437.485
AUBIESAT-1 31 Mar 19:49:57 19:54:16 33° 292° (WNW) 19:58:21 437.475
PRISM 31 Mar 20:04:18 20:08:26 69° 101° (E) 20:12:32 437.425
M-CUBED/EXP-1 PRIME 31 Mar 20:17:48 20:20:44 16° 296° (WNW) 20:23:25 437.505
CUBESAT XI-V 31 Mar 20:19:00 20:23:34 60° 284° (WNW) 20:28:04 437.345
CUTE-I 31 Mar 20:20:39 20:24:39 20° 266° (W) 20:28:27 437.470
Cubesat XI-IV 31 Mar 20:21:41 20:25:37 20° 266° (W) 20:29:20 437.490
SRMSAT 31 Mar 20:21:55 20:25:38 17° 196° (SSW) 20:29:17 437.500
STRAND 1 31 Mar 20:28:39 20:33:46 78° 103° (ESE) 20:38:51 437.568
BRITE-PL 31 Mar 20:37:54 20:41:48 27° 75° (ENE) 20:45:34 437.365/2234.400
AIST 2 31 Mar 20:38:09 20:42:15 48° 60° (ENE) 20:46:17 435.215
GONETS M04 31 Mar 20:39:21 20:48:00 69° 278° (W) 20:56:41
BEESAT 2 31 Mar 20:49:47 20:53:29 32° 247° (WSW) 20:57:05 435.950
DOVE 4 31 Mar 20:50:09 20:52:04 13° 72° (ENE) 20:54:11 437.250
COMPASS 1 31 Mar 20:51:06 20:51:54 11° 70° (ENE) 20:52:59 437.405
CUSAT 1 31 Mar 21:09:39 21:12:20 31° 97° (E) 21:14:45 437.405
GOMX 1 31 Mar 21:11:16 21:15:29 39° 75° (ENE) 21:19:31 467.674
HO-68 31 Mar 21:22:55 21:29:58 65° 73° (ENE) 21:37:05 435.675
CANX-2 31 Mar 21:25:47 21:29:52 53° 77° (ENE) 21:34:02 2200.000
CUTE 1.7 + AOD 2 31 Mar 21:39:12 21:43:24 72° 78° (ENE) 21:47:39 437.475
CUBEBUG 2 31 Mar 21:42:36 21:44:25 13° 71° (ENE) 21:46:27 437.445
CINEMA 3 31 Mar 21:46:06 21:49:44 30° 74° (ENE) 21:53:24 145.822/145.860
ISS 31 Mar 21:50:03 21:53:17 64° 132° (SE) 21:56:30 145.825
RS-15 31 Mar 21:52:53 22:01:03 22° 320° (NW) 22:08:53 29.354- 29.394
AAUSAT CUBESAT 2 31 Mar 21:53:49 21:57:54 60° 77° (ENE) 22:02:02 437.432
SEEDS 31 Mar 22:04:37 22:08:47 64° 260° (W) 22:12:59 437.485
UKube-1 31 Mar 22:12:09 22:14:30 15° 70° (ENE) 22:17:02 .
DANDE 31 Mar 22:15:13 22:17:53 23° 279° (W) 22:20:11 436.750
BRITE-PL 31 Mar 22:16:42 22:20:20 21° 264° (W) 22:23:40 437.365/2234.400
AIST 2 31 Mar 22:19:59 22:20:27 10° 251° (WSW) 22:20:38 435.215
COMPASS 1 31 Mar 22:23:14 22:27:14 45° 261° (W) 22:31:17 437.405
DX 1 31 Mar 22:24:48 22:28:10 23° 72° (ENE) 22:31:38 434.975-435.025
DOVE 4 31 Mar 22:25:34 22:29:38 37° 261° (W) 22:33:33 437.250
Oscar 11 31 Mar 22:38:35 22:42:53 85° 258° (WSW) 22:47:13 145.826/435.025
GOMX 1 31 Mar 22:51:42 22:53:48 13° 267° (W) 22:55:34 467.674
DELFI C3 31 Mar 22:52:26 22:56:28 74° 259° (WSW) 23:00:33 145.870
FUNcube-1 31 Mar 22:54:39 22:58:45 69° 77° (ENE) 23:02:53 145.935
UWE-3 31 Mar 23:06:01 23:10:07 63° 260° (W) 23:14:13 435.000/436.395/437.385
ZACube-1 31 Mar 23:08:33 23:12:41 75° 259° (W) 23:16:50 437.345
CUBEBUG 1 31 Mar 23:09:26 23:11:07 12° 70° (ENE) 23:13:04 437.445
HO-68 31 Mar 23:13:32 23:18:16 18° 268° (W) 23:22:35 435.675
VELOX 1 31 Mar 23:14:47 23:18:49 35° 74° (ENE) 23:22:52 145.980
CUBEBUG 2 31 Mar 23:17:02 23:20:52 35° 262° (W) 23:24:40 437.445
AISAT 31 Mar 23:20:29 23:24:40 43° 75° (ENE) 23:28:53 437.250
CINEMA 3 31 Mar 23:24:33 23:27:04 15° 267° (W) 23:29:22 145.822/145.860
ISS 31 Mar 23:28:58 23:30:00 11° 328° (NNW) 23:30:56 145.825
PCSat 31 Mar 23:30:05 23:32:38 14° 51° (NE) 23:35:28 145.827
UNISAT 6 31 Mar 23:33:26 23:37:30 31° 97° (E) 23:41:40 437.425
HUMSAT D 31 Mar 23:38:14 23:42:18 69° 259° (W) 23:46:23 437.325/437.525
QB50P1 31 Mar 23:40:37 23:43:08 16° 94° (E) 23:45:49 145.935-145.965
DUCHIFAT 1 31 Mar 23:40:57 23:43:23 15° 93° (E) 23:46:00 145.980
TIGRISAT 31 Mar 23:42:13 23:46:30 38° 98° (E) 23:50:52 435.000
UKube-1 31 Mar 23:46:24 23:50:24 35° 262° (W) 23:54:21 .
50 SAT 31 Mar 23:53:36 23:57:28 68° 259° (W) 00:01:22 437.505
QB50P2 31 Mar 23:55:36 23:59:05 25° 96° (E) 00:02:39 145.880/145.840
ESTCUBE 1 31 Mar 23:58:45 00:03:13 58° 76° (ENE) 00:07:42 437.505/2401.250
DX 1 01 Apr 00:00:50 00:04:21 23° 264° (W) 00:07:45 434.975-435.025
BUGSAT 1 01 Apr 00:08:41 00:11:52 23° 96° (E) 00:15:08 437.445
ANTELSAT 01 Apr 00:13:40 00:18:20 87° 282° (WNW) 00:23:02 437.575/2403.000
TISAT 1 01 Apr 00:22:30 00:25:09 17° 72° (ENE) 00:27:58 437.305
POPSAT HIP 1 01 Apr 00:23:12 00:27:21 56° 100° (E) 00:31:32 437.405
NANOSAT C BR1 01 Apr 00:32:36 00:36:49 76° 101° (E) 00:41:03 145.865
POLYITAN 1 01 Apr 00:39:19 00:43:35 86° 278° (W) 00:47:51 437.675
SPROUT 01 Apr 00:41:36 00:45:30 35° 74° (ENE) 00:49:26 437.525
CUBEBUG 1 01 Apr 00:42:57 00:47:10 44° 261° (W) 00:51:22 437.445
YUBILEINY 01 Apr 00:43:26 00:50:30 28° 73° (ENE) 00:57:50 435.215
VELOX 1 01 Apr 00:52:52 00:55:31 15° 267° (W) 00:57:57 145.980
AISAT 01 Apr 00:59:38 01:01:31 12° 268° (W) 01:03:08 437.250
UNISAT 6 01 Apr 01:10:42 01:14:07 20° 288° (WNW) 01:17:24 437.425
PCSat 01 Apr 01:11:15 01:16:38 68° 248° (WSW) 01:21:59 145.827
QB50P1 01 Apr 01:15:21 01:19:05 30° 286° (WNW) 01:22:46 145.935-145.965
DUCHIFAT 1 01 Apr 01:15:34 01:19:18 30° 286° (WNW) 01:22:59 145.980
TIGRISAT 01 Apr 01:20:04 01:23:00 16° 289° (WNW) 01:25:45 435.000
QB50P2 01 Apr 01:31:45 01:34:52 19° 288° (WNW) 01:37:51 145.880/145.840
ITUPSAT 1 01 Apr 01:38:11 01:41:31 20° 70° (ENE) 01:45:01 437.325
BUGSAT 1 01 Apr 01:44:21 01:47:14 19° 288° (WNW) 01:50:01 437.445
TISAT 1 01 Apr 01:57:06 02:00:47 28° 263° (W) 02:04:24 437.305
SPROUT 01 Apr 02:19:29 02:21:45 14° 267° (W) 02:23:48 437.525
SWISSCUBE 01 Apr 02:23:10 02:27:56 72° 76° (ENE) 02:32:45 437.505
BEESAT 01 Apr 02:25:38 02:30:23 70° 75° (ENE) 02:35:10 436.000
RS-15 01 Apr 02:34:19 02:40:04 15° 32° (NNE) 02:46:37 29.354- 29.394
YUBILEINY 01 Apr 02:39:17 02:47:43 51° 269° (W) 02:55:59 435.215
ITAMSAT 1 01 Apr 02:42:29 02:44:22 12° 91° (E) 02:46:36 435.822/435.867
Oscar 19 01 Apr 03:07:13 03:12:25 89° 295° (WNW) 03:17:37 437.125/150
ITUPSAT 1 01 Apr 03:14:52 03:19:13 33° 263° (W) 03:23:31 437.325
O/OREOS (USA 219) 01 Apr 03:16:48 03:19:34 17° 102° (ESE) 03:22:33 437.305
KKS-1 01 Apr 03:25:13 03:29:30 52° 75° (ENE) 03:33:50 437.445
SO-50 01 Apr 03:41:22 03:45:12 23° 53° (NE) 03:49:07 436.795
Gurwin Techsat 1B 01 Apr 03:45:26 03:50:35 50° 100° (E) 03:55:44 435.225
VERMONT LUNAR 01 Apr 03:50:13 03:53:22 40° 146° (SE) 03:56:32 437.305
STARS 01 Apr 03:50:23 03:54:42 64° 77° (ENE) 03:59:02 437.465
HORYU 2 01 Apr 04:01:35 04:03:19 12° 92° (E) 04:05:20 437.375
ITAMSAT 1 01 Apr 04:19:13 04:24:17 56° 285° (WNW) 04:29:19 435.822/435.867
AIST 1 01 Apr 04:28:08 04:32:23 51° 94° (E) 04:36:41
AO-7 01 Apr 04:41:08 04:47:53 29° 97° (E) 04:54:53 29.400- 29.500
RS-15 01 Apr 04:44:15 04:55:40 61° 58° (ENE) 05:07:38 29.354- 29.394
JAS-2 01 Apr 04:50:26 04:56:34 29° 92° (E) 05:02:22 435.910
O/OREOS (USA 219) 01 Apr 04:54:35 04:58:46 33° 294° (WNW) 05:02:55 437.305
PHONESAT 2.4 01 Apr 04:54:49 04:58:16 56° 147° (SSE) 05:01:44 2401.200-2431.200
MOZHAYETS 4 01 Apr 05:20:58 05:25:25 50° 75° (ENE) 05:29:55
SO-50 01 Apr 05:21:22 05:25:50 34° 248° (WSW) 05:30:11 436.795
M-CUBED/EXP-1 PRIME 01 Apr 05:25:33 05:28:39 22° 66° (ENE) 05:32:03 437.505
Gurwin Techsat 1B 01 Apr 05:27:01 05:30:12 16° 292° (WNW) 05:33:08 435.225
VERMONT LUNAR 01 Apr 05:28:07 05:31:06 30° 339° (NNW) 05:34:06 437.305
HORYU 2 01 Apr 05:35:56 05:40:14 44° 285° (WNW) 05:44:29 437.375
ISS 01 Apr 05:58:14 06:01:23 54° 43° (NE) 06:04:33 145.825
AUBIESAT-1 01 Apr 06:32:14 06:36:07 57° 256° (WSW) 06:40:22 437.475
AO-7 01 Apr 06:33:01 06:40:57 51° 291° (WNW) 06:48:49 29.400- 29.500
PHONESAT 2.4 01 Apr 06:33:42 06:36:45 27° 341° (NNW) 06:39:48 2401.200-2431.200
JAS-2 01 Apr 06:34:43 06:41:48 44° 289° (WNW) 06:48:09 435.910
PRISM 01 Apr 06:49:34 06:52:52 23° 72° (ENE) 06:56:16 437.425
GONETS M04 01 Apr 06:56:53 07:05:14 47° 78° (ENE) 07:13:41
RS-15 01 Apr 06:57:39 07:07:42 33° 253° (WSW) 07:17:36 29.354- 29.394
M-CUBED/EXP-1 PRIME 01 Apr 07:00:20 07:03:28 22° 262° (W) 07:06:44 437.505
MOZHAYETS 4 01 Apr 07:01:30 07:02:59 11° 269° (W) 07:04:09
CUTE-I 01 Apr 07:02:58 07:07:09 24° 95° (E) 07:11:28 437.470
Cubesat XI-IV 01 Apr 07:04:00 07:08:17 25° 96° (E) 07:12:40 437.490
VERMONT LUNAR 01 Apr 07:07:31 07:09:26 14° 356° (N) 07:11:23 437.305
CUBESAT XI-V 01 Apr 07:16:17 07:20:57 67° 77° (ENE) 07:25:37 437.345
STRAND 1 01 Apr 07:38:41 07:43:45 61° 75° (ENE) 07:48:50 437.568
CUSAT 1 01 Apr 07:49:18 07:53:31 26° 80° (E) 07:58:54 437.405
PHONESAT 2.4 01 Apr 08:13:39 08:15:49 15° 358° (N) 08:17:59 2401.200-2431.200
PRISM 01 Apr 08:25:04 08:28:18 21° 265° (W) 08:31:25 437.425
CUTE-I 01 Apr 08:42:35 08:47:15 31° 288° (WNW) 08:51:49 437.470
Cubesat XI-IV 01 Apr 08:43:46 08:48:23 30° 289° (WNW) 08:52:54 437.490
VERMONT LUNAR 01 Apr 08:45:31 08:47:56 18° 13° (NNE) 08:50:23 437.305
BRITE-PL 01 Apr 08:49:15 08:50:54 12° 93° (E) 08:52:53 437.365/2234.400
GONETS M04 01 Apr 08:54:21 09:01:49 30° 273° (W) 09:09:00
DANDE 01 Apr 08:56:59 09:01:46 88° 266° (W) 09:08:18 436.750
HO-68 01 Apr 08:59:21 09:03:10 16° 92° (E) 09:07:28 435.675
BEESAT 2 01 Apr 09:03:04 09:04:16 11° 109° (ESE) 09:05:43 435.950
CANX-2 01 Apr 09:18:20 09:20:42 15° 93° (E) 09:23:17 2200.000
GOMX 1 01 Apr 09:18:54 09:21:56 18° 95° (E) 09:25:16 467.674
STRAND 1 01 Apr 09:21:44 09:23:24 11° 269° (W) 09:24:41 437.568
CUTE 1.7 + AOD 2 01 Apr 09:31:12 09:34:16 20° 94° (E) 09:37:27 437.475
CUSAT 1 01 Apr 09:31:35 09:36:14 31° 263° (W) 09:41:56 437.405
BEESAT 3 01 Apr 09:33:45 09:37:26 35° 113° (ESE) 09:41:12 437.485
AAUSAT CUBESAT 2 01 Apr 09:44:08 09:46:31 15° 93° (E) 09:49:06 437.432
CINEMA 3 01 Apr 09:47:42 09:49:32 13° 93° (E) 09:51:42 145.822/145.860
PHONESAT 2.4 01 Apr 09:52:06 09:54:57 22° 15° (NNE) 09:57:48 2401.200-2431.200
